Content
SEND FEEDBACK

Daily
Averages
Monthly
Summary
United States of America

MONTEREY, LOUISIANA


Home > North America > United States > Louisiana
Elevation: 20 meters     Latitude: 31 29N     Longitude: 091 51W

WEATHER
 
SELECT A DAY
Number of Records: 218,513;   Date Range: 1/1/95 - 7/7/14
 
SHARE

PRINT THIS DATA

[ ← Previous Day ]
WEATHER ALMANAC - 3 JANUARY, 2013
[ Next Day → ]
[ °F ]   °C
Weather ElementAverageHighLow
Temperature5.5 °C11.1 °C (1:53 pm)2.8 °C (6:53 am)
Dewpoint1.3 °C2.2 °C (3:53 am)-1.1 °C (4:53 pm)
Humidity76.9 %93 % (5:49 am)45 % (1:53 pm)
Barometer1028.1 hPa1030.8 hPa (10:53 pm)1026.1 hPa (1:39 am)
Wind Speed4.5 km/h14.8 km/h (11:32 am)
Wind Gust27.8 km/h (10:53 am)
Weather ElementAverage
Visibility15.8 km
Wind DirectionNE (46.7 °)

Weather ElementTotal
Precipitation---
Heating Degree Days11.4 (Base 18.3)
Averaged from 33 records on 3 January, 2013
WEATHER CONDITIONS BREAKOUT
WIND DIRECTION BREAKOUT
WEATHER BY HOUR - 3 JANUARY, 2013
[ °F ]   °C
Local TimeTemperatureDewpointHumidityBarometerVisibilityWind DirectionWind SpeedGust SpeedPrecipitationEventsConditions
1:39 AM4 °C2 °C87 %1026.1 hPa16.1 kmCalmScattered Clouds
1:53 AM3.9 °C1.7 °C86 %1026.1 hPa16.1 kmCalmClear
2:32 AM4 °C2 °C87 %1026.1 hPa16.1 kmCalmMostly Cloudy
2:53 AM3.9 °C1.7 °C86 %1026.4 hPa16.1 kmCalmMostly Cloudy
3:04 AM4 °C2 °C87 %1026.4 hPa16.1 kmCalmScattered Clouds
3:44 AM4 °C2 °C87 %1026.4 hPa16.1 kmCalmScattered Clouds
3:53 AM3.9 °C2.2 °C89 %1026.8 hPa16.1 kmCalmMostly Cloudy
4:53 AM3.9 °C2.2 °C89 %1026.8 hPa16.1 kmVariable5.6 km/hOvercast
5:49 AM3 °C2 °C93 %1026.8 hPa16.1 kmNorth (360°)7.4 km/hScattered Clouds
5:53 AM3 °C2 °C93 %1026.8 hPa16.1 kmVariable7.4 km/hScattered Clouds
6:53 AM2.8 °C1.7 °C93 %1027.4 hPa14.5 kmCalmPartly Cloudy
7:07 AM3 °C2 °C93 %1027.8 hPa14.5 kmCalmMostly Cloudy
7:53 AM3.3 °C1.7 °C89 %1028.4 hPa12.9 kmNorth (360°)7.4 km/hOvercast
8:29 AM3 °C2 °C93 %1029.1 hPa12.9 kmVariable5.6 km/hScattered Clouds
8:51 AM4 °C2 °C87 %1029.1 hPa14.5 kmNE (40°)5.6 km/hMostly Cloudy
8:53 AM3.9 °C1.7 °C86 %1029.1 hPa14.5 kmNE (40°)5.6 km/hMostly Cloudy
9:23 AM4 °C1 °C81 %1029.5 hPa16.1 kmNorth (360°)11.1 km/hScattered Clouds
9:53 AM5.6 °C1.1 °C73 %1029.5 hPa16.1 kmVariable11.1 km/hPartly Cloudy
10:53 AM6.7 °C0.6 °C65 %1029.8 hPa16.1 kmNNE (20°)13 km/h27.8 km/hMostly Cloudy
11:32 AM8 °C1 °C62 %1028.8 hPa16.1 kmNNE (20°)14.8 km/hPartly Cloudy
11:53 AM8.3 °C1.1 °C61 %1028.4 hPa16.1 kmVariable7.4 km/hPartly Cloudy
12:53 PM9.4 °C0.6 °C54 %1027.4 hPa16.1 kmVariable7.4 km/hClear
1:53 PM11.1 °C-0.6 °C45 %1026.8 hPa16.1 kmVariable9.3 km/hClear
2:53 PM11.1 °C-0.6 °C45 %1026.8 hPa16.1 kmVariable11.1 km/hClear
3:53 PM11.1 °C-0.6 °C45 %1027.4 hPa16.1 kmNNW (340°)11.1 km/hClear
4:53 PM8.9 °C-1.1 °C50 %1027.8 hPa16.1 kmVariable7.4 km/hClear
5:53 PM7.2 °C1.1 °C65 %1028.8 hPa16.1 kmCalmClear
6:53 PM6.7 °C1.7 °C71 %1029.8 hPa16.1 kmCalmClear
7:53 PM6.7 °C1.7 °C71 %1029.5 hPa16.1 kmCalmOvercast
8:53 PM6.1 °C2.2 °C76 %1030.1 hPa16.1 kmCalmPartly Cloudy
9:53 PM4.4 °C2.2 °C86 %1030.5 hPa16.1 kmCalmScattered Clouds
10:53 PM2.8 °C1.1 °C89 %1030.8 hPa16.1 kmCalmClear
11:53 PM5 °C0.6 °C73 %1030.1 hPa16.1 kmCalmClear
Hourly data recorded from KESF, located 0 kilometers away from Monterey, Louisiana







STORIES FROM OUR PARTNERS